Location: ????????
(56.0167°N, 38.0333°E)
Time: 02:04:45
(UTC+00:00)

ARIANE 5 R/B - Pass Details

Date: 19 May 2025
Orbit: 614 x 648 km, 98.0° (Epoch: 12 June)

Event Time Altitude Azimuth Distance (km) Brightness Sun altitude
Exits shadow 19:46:29 16° 145° (SE) 1,641 4.1 -11.3°
Maximum altitude 19:49:52 59° 69° (ENE) 721 2.9 -11.4°
Drops below altitude 10° 19:54:10 10° 350° (N) 2,012 6.6 -11.7°
Sets 19:56:24 0° 347° (NNW) 2,929 8.0 -11.8°
